sat.trackr.live / text

‹ back to catalog

STARLINK-4368

NORAD 53234 · 2022-084AX

PAYLOAD ACTIVE UNKNOWN

§ Identity

Operator
Country
US
Launch date
2022-07-22
Launch site
AFWTR
Launch vehicle
Mass (kg)
RCS (m²)

Purposes: comms

External: N2YO · Heavens-Above · Gunter

§ Orbital elements

Epoch: 2026-05-25T02:42:09.440928Z

Period
94.39 min
Inclination
97.6008°
Eccentricity
0.0001812
Mean motion
15.25531108 rev/d
Perigee alt
487.9 km
Apogee alt
490.4 km
Semi-major
6,867.3 km
B*
2.2818e-3
RAAN
205.9019°
Arg perigee
67.5797°
Mean anomaly
292.5633°
Rev number
21,185

§ Raw data

STARLINK-43681 53234U 22084AX  26145.11260927  .00058177  00000+0  22818-2 0  99992 53234  97.6008 205.9019 0001812  67.5797 292.5633 15.25531108211856

JSON: /api/v1/satellites/53234 · /tle

For live sub-satellite position, see the globe view (requires WebGL).

§ Visibility from observer

Set your observer location to see the next 7 days of passes ≥ 10°. The values pass through the URL so the page stays shareable.

No JS? Fill the form by hand. The geolocation button needs JavaScript.